GFSNE_prec_precacc12_246.txt.gz
Total_Precipitation_Accumulation
0.00 0.00 0.00 0.00 0.00 0.00 0.00 0.01 0.08 0.07 0.01 0.00 0.00 0.00 0.00 0.00 0.00 0.00 0.02 0.08 0.20 0.25 0.23 0.28 0.47 0.62 0.76 0.74 0.79 0.77 0.78 0.89 0.92 0.88 0.73 0.66 0.64 0.46
0.00 0.00 0.00 0.00 0.00 0.00 0.00 0.02 0.08 0.15 0.11 0.00 0.00 0.00 0.00 0.00 0.00 0.00 0.00 0.00 0.02 0.11 0.22 0.24 0.37 0.66 0.90 1.03 1.03 1.08 1.05 0.85 0.76 0.73 0.78 0.78 0.66 0.62
0.00 0.00 0.00 0.00 0.00 0.00 0.01 0.03 0.05 0.13 0.13 0.01 0.01 0.01 0.02 0.02 0.00 0.00 0.00 0.00 0.00 0.01 0.03 0.12 0.20 0.30 0.62 0.99 1.06 1.03 1.27 1.41 1.25 1.05 0.83 0.74 0.85 0.62
0.00 0.00 0.00 0.00 0.00 0.01 0.00 0.00 0.02 0.05 0.09 0.02 0.01 0.01 0.01 0.01 0.01 0.01 0.01 0.00 0.00 0.00 0.02 0.02 0.04 0.12 0.21 0.36 0.73 1.06 1.10 1.20 1.46 1.44 1.27 1.03 0.81 0.69
0.00 0.00 0.00 0.00 0.00 0.01 0.00 0.00 0.00 0.01 0.02 0.03 0.01 0.01 0.01 0.02 0.01 0.01 0.01 0.01 0.01 0.02 0.02 0.02 0.01 0.01 0.05 0.20 0.34 0.52 0.91 1.23 1.25 1.41 1.46 1.29 1.29 0.96
0.00 0.00 0.00 0.00 0.00 0.00 0.00 0.00 0.00 0.01 0.01 0.02 0.01 0.01 0.02 0.02 0.03 0.02 0.02 0.03 0.02 0.03 0.01 0.00 0.01 0.00 0.00 0.02 0.15 0.34 0.51 0.72 1.16 1.37 1.33 1.31 1.19 1.34
0.00 0.00 0.00 0.00 0.00 0.00 0.00 0.00 0.01 0.01 0.02 0.02 0.01 0.01 0.02 0.01 0.02 0.02 0.03 0.02 0.02 0.01 0.01 0.01 0.01 0.01 0.01 0.01 0.05 0.15 0.32 0.57 0.76 1.04 1.25 1.17 1.22 1.16
0.00 0.00 0.00 0.00 0.00 0.00 0.00 0.01 0.01 0.01 0.02 0.02 0.02 0.02 0.01 0.01 0.02 0.03 0.03 0.03 0.04 0.02 0.03 0.01 0.01 0.01 0.01 0.02 0.03 0.10 0.23 0.38 0.59 0.83 1.01 1.02 1.02 0.98
0.00 0.00 0.00 0.00 0.00 0.00 0.01 0.01 0.01 0.02 0.02 0.02 0.02 0.01 0.01 0.01 0.02 0.04 0.04 0.06 0.05 0.02 0.04 0.02 0.00 0.00 0.00 0.01 0.04 0.07 0.14 0.31 0.39 0.50 0.82 1.24 1.06 1.12
0.00 0.00 0.00 0.00 0.00 0.00 0.01 0.00 0.00 0.01 0.01 0.01 0.02 0.02 0.02 0.02 0.05 0.11 0.11 0.06 0.03 0.01 0.02 0.03 0.01 0.00 0.00 0.01 0.05 0.06 0.09 0.22 0.38 0.49 0.63 1.26 1.39 1.30
0.00 0.00 0.00 0.00 0.00 0.00 0.01 0.01 0.01 0.00 0.02 0.05 0.06 0.07 0.07 0.06 0.05 0.10 0.06 0.07 0.04 0.01 0.01 0.01 0.02 0.02 0.03 0.06 0.12 0.21 0.17 0.25 0.40 0.63 0.95 1.23 1.61 1.29
0.00 0.00 0.01 0.00 0.00 0.00 0.02 0.05 0.03 0.00 0.01 0.01 0.02 0.03 0.03 0.03 0.03 0.04 0.04 0.07 0.05 0.04 0.01 0.02 0.03 0.02 0.07 0.18 0.19 0.26 0.35 0.32 0.39 0.54 0.70 0.94 1.42 1.28
0.00 0.00 0.00 0.01 0.00 0.00 0.02 0.04 0.04 0.03 0.03 0.01 0.01 0.00 0.00 0.00 0.00 0.01 0.01 0.05 0.08 0.07 0.02 0.07 0.05 0.04 0.04 0.11 0.24 0.38 0.41 0.66 0.73 0.79 0.76 0.90 1.02 0.98
0.01 0.01 0.00 0.00 0.00 0.00 0.01 0.02 0.03 0.03 0.02 0.01 0.01 0.01 0.01 0.00 0.01 0.02 0.03 0.04 0.08 0.09 0.05 0.09 0.08 0.04 0.06 0.06 0.20 0.46 0.64 0.78 0.67 0.89 1.06 1.37 1.40 0.99
0.00 0.00 0.00 0.00 0.00 0.00 0.01 0.02 0.01 0.01 0.01 0.01 0.00 0.00 0.00 0.01 0.04 0.06 0.06 0.05 0.04 0.08 0.10 0.09 0.07 0.05 0.06 0.03 0.13 0.30 0.43 0.83 0.81 0.73 0.75 0.84 1.07 1.16
0.01 0.00 0.00 0.01 0.00 0.01 0.01 0.00 0.00 0.01 0.01 0.01 0.01 0.01 0.02 0.06 0.10 0.09 0.09 0.06 0.07 0.11 0.12 0.14 0.15 0.08 0.09 0.12 0.07 0.26 0.25 0.49 0.82 0.82 0.62 0.67 0.78 0.76
0.00 0.01 0.01 0.01 0.01 0.00 0.00 0.00 0.00 0.00 0.01 0.00 0.01 0.03 0.06 0.09 0.11 0.09 0.09 0.10 0.09 0.10 0.16 0.22 0.18 0.17 0.24 0.19 0.24 0.27 0.31 0.40 0.53 0.66 0.43 0.50 0.57 0.53
0.00 0.00 0.01 0.02 0.02 0.01 0.00 0.00 0.00 0.01 0.01 0.01 0.02 0.05 0.08 0.08 0.09 0.09 0.10 0.12 0.09 0.12 0.14 0.17 0.12 0.12 0.12 0.32 0.29 0.27 0.36 0.40 0.48 0.43 0.21 0.13 0.24 0.21
0.00 0.01 0.01 0.02 0.02 0.01 0.01 0.01 0.01 0.01 0.01 0.02 0.04 0.05 0.06 0.06 0.07 0.09 0.11 0.10 0.11 0.11 0.14 0.17 0.14 0.06 0.07 0.14 0.48 0.36 0.22 0.28 0.25 0.31 0.27 0.16 0.11 0.08
0.00 0.00 0.01 0.01 0.01 0.01 0.02 0.02 0.01 0.01 0.02 0.03 0.04 0.05 0.06 0.07 0.07 0.08 0.09 0.10 0.10 0.12 0.14 0.18 0.17 0.13 0.04 0.02 0.16 0.50 0.36 0.20 0.14 0.17 0.19 0.15 0.08 0.02
0.00 0.00 0.01 0.01 0.01 0.01 0.03 0.03 0.03 0.03 0.03 0.04 0.04 0.05 0.05 0.07 0.07 0.07 0.07 0.08 0.07 0.06 0.06 0.11 0.13 0.05 0.03 0.01 0.04 0.18 0.35 0.28 0.18 0.11 0.10 0.05 0.03 0.02
0.01 0.01 0.01 0.01 0.01 0.01 0.02 0.03 0.04 0.03 0.04 0.04 0.04 0.04 0.05 0.06 0.06 0.06 0.07 0.06 0.04 0.03 0.04 0.06 0.09 0.07 0.06 0.01 0.02 0.05 0.09 0.11 0.06 0.05 0.02 0.01 0.01 0.00
0.02 0.02 0.01 0.01 0.01 0.01 0.03 0.04 0.04 0.03 0.04 0.04 0.04 0.05 0.04 0.06 0.07 0.06 0.03 0.01 0.01 0.02 0.02 0.04 0.08 0.04 0.04 0.03 0.01 0.03 0.03 0.04 0.02 0.00 0.00 0.00 0.00 0.00

GFSNE_prec_precacc12_249.txt.gz
Total_Precipitation_Accumulation
0.00 0.00 0.00 0.00 0.00 0.00 0.00 0.01 0.04 0.04 0.01 0.00 0.00 0.00 0.00 0.00 0.00 0.00 0.00 0.00 0.01 0.02 0.03 0.11 0.18 0.21 0.32 0.60 0.73 0.70 0.69 0.74 0.80 0.78 0.66 0.62 0.66 0.66
0.00 0.00 0.00 0.00 0.00 0.00 0.00 0.01 0.04 0.09 0.06 0.00 0.00 0.00 0.00 0.00 0.00 0.00 0.00 0.00 0.00 0.00 0.01 0.04 0.11 0.27 0.32 0.47 0.85 0.97 0.94 0.73 0.66 0.65 0.71 0.74 0.68 0.80
0.00 0.00 0.00 0.00 0.00 0.00 0.00 0.02 0.03 0.06 0.07 0.01 0.01 0.01 0.02 0.02 0.00 0.00 0.00 0.00 0.00 0.00 0.00 0.02 0.04 0.05 0.20 0.38 0.44 0.76 1.07 1.23 1.10 0.95 0.75 0.69 0.88 0.81
0.00 0.00 0.00 0.00 0.00 0.00 0.00 0.00 0.02 0.03 0.05 0.02 0.00 0.01 0.01 0.01 0.01 0.01 0.01 0.00 0.00 0.00 0.01 0.01 0.01 0.03 0.06 0.12 0.26 0.44 0.71 0.87 1.19 1.21 1.11 0.96 0.79 1.04
0.00 0.00 0.00 0.00 0.00 0.00 0.00 0.00 0.00 0.00 0.01 0.02 0.01 0.01 0.01 0.02 0.01 0.01 0.01 0.01 0.01 0.02 0.02 0.02 0.02 0.04 0.04 0.04 0.09 0.21 0.45 0.74 0.88 1.15 1.26 1.16 1.22 1.05
0.00 0.00 0.00 0.00 0.00 0.00 0.00 0.00 0.00 0.01 0.01 0.01 0.01 0.01 0.02 0.02 0.03 0.02 0.02 0.03 0.02 0.03 0.01 0.00 0.01 0.01 0.01 0.00 0.02 0.09 0.23 0.35 0.70 1.03 1.08 1.16 1.12 1.31
0.00 0.00 0.00 0.00 0.00 0.00 0.00 0.00 0.01 0.01 0.01 0.01 0.01 0.01 0.01 0.01 0.02 0.02 0.03 0.02 0.02 0.01 0.01 0.01 0.01 0.00 0.00 0.00 0.01 0.02 0.09 0.28 0.45 0.79 1.07 1.04 1.13 1.15
0.00 0.00 0.00 0.00 0.00 0.00 0.00 0.00 0.00 0.01 0.02 0.02 0.02 0.02 0.01 0.02 0.02 0.03 0.03 0.03 0.04 0.02 0.03 0.02 0.01 0.00 0.00 0.01 0.01 0.01 0.02 0.09 0.29 0.63 0.89 0.92 0.94 1.00
0.00 0.00 0.00 0.00 0.00 0.00 0.01 0.00 0.00 0.01 0.01 0.01 0.02 0.01 0.02 0.01 0.03 0.04 0.04 0.07 0.06 0.02 0.06 0.04 0.00 0.00 0.00 0.00 0.01 0.00 0.00 0.06 0.14 0.32 0.70 1.08 0.90 1.07
0.00 0.00 0.00 0.00 0.00 0.00 0.00 0.00 0.00 0.00 0.01 0.01 0.02 0.02 0.02 0.02 0.05 0.11 0.11 0.07 0.03 0.01 0.03 0.05 0.00 0.00 0.00 0.00 0.00 0.00 0.00 0.03 0.12 0.28 0.44 1.01 1.14 1.20
0.00 0.00 0.00 0.00 0.00 0.00 0.01 0.01 0.00 0.00 0.01 0.03 0.05 0.06 0.06 0.06 0.05 0.10 0.06 0.09 0.05 0.01 0.01 0.02 0.01 0.00 0.00 0.00 0.00 0.01 0.03 0.07 0.14 0.30 0.58 0.84 1.31 1.29
0.00 0.00 0.00 0.00 0.00 0.00 0.01 0.01 0.01 0.00 0.00 0.00 0.01 0.02 0.02 0.03 0.03 0.04 0.06 0.12 0.06 0.05 0.01 0.05 0.02 0.02 0.03 0.01 0.02 0.02 0.08 0.15 0.16 0.19 0.31 0.60 1.35 1.47
0.00 0.00 0.00 0.00 0.00 0.00 0.01 0.01 0.02 0.01 0.01 0.00 0.00 0.00 0.00 0.00 0.00 0.01 0.02 0.07 0.11 0.07 0.02 0.12 0.06 0.03 0.05 0.03 0.06 0.13 0.12 0.23 0.26 0.32 0.47 0.86 1.37 1.46
0.00 0.00 0.00 0.00 0.00 0.00 0.00 0.01 0.00 0.00 0.00 0.00 0.00 0.00 0.01 0.00 0.00 0.01 0.02 0.03 0.09 0.10 0.05 0.12 0.11 0.08 0.09 0.04 0.08 0.21 0.28 0.40 0.34 0.60 0.90 1.56 1.77 1.42
0.00 0.00 0.00 0.00 0.00 0.00 0.00 0.00 0.00 0.00 0.00 0.01 0.00 0.00 0.00 0.01 0.01 0.02 0.03 0.03 0.03 0.05 0.07 0.08 0.08 0.07 0.07 0.02 0.09 0.21 0.28 0.61 0.66 0.68 0.72 0.96 1.43 1.67
0.01 0.00 0.00 0.00 0.00 0.00 0.00 0.00 0.00 0.01 0.00 0.01 0.01 0.01 0.01 0.03 0.05 0.04 0.05 0.05 0.05 0.08 0.08 0.11 0.12 0.07 0.06 0.09 0.05 0.20 0.20 0.44 0.82 0.88 0.68 0.84 1.04 1.09
0.00 0.01 0.01 0.01 0.01 0.00 0.00 0.00 0.00 0.00 0.01 0.00 0.00 0.01 0.03 0.04 0.05 0.05 0.07 0.08 0.08 0.09 0.15 0.19 0.12 0.09 0.15 0.12 0.15 0.18 0.23 0.35 0.56 0.82 0.51 0.63 0.82 0.87
0.00 0.00 0.00 0.01 0.01 0.01 0.00 0.00 0.00 0.01 0.01 0.01 0.00 0.01 0.04 0.05 0.05 0.06 0.07 0.08 0.07 0.08 0.12 0.16 0.09 0.08 0.07 0.21 0.22 0.21 0.28 0.34 0.47 0.51 0.33 0.23 0.53 0.68
0.00 0.00 0.00 0.01 0.01 0.01 0.01 0.01 0.01 0.01 0.01 0.01 0.01 0.02 0.04 0.04 0.05 0.06 0.07 0.06 0.07 0.07 0.11 0.13 0.10 0.04 0.05 0.13 0.43 0.32 0.20 0.27 0.25 0.33 0.35 0.20 0.23 0.38
0.00 0.00 0.00 0.01 0.01 0.01 0.01 0.01 0.01 0.01 0.02 0.02 0.02 0.04 0.05 0.06 0.05 0.05 0.05 0.05 0.07 0.08 0.11 0.16 0.15 0.10 0.03 0.02 0.16 0.55 0.38 0.24 0.16 0.24 0.28 0.23 0.16 0.13
0.00 0.00 0.00 0.01 0.01 0.01 0.02 0.02 0.02 0.02 0.02 0.02 0.03 0.04 0.05 0.06 0.05 0.04 0.04 0.04 0.05 0.04 0.05 0.10 0.12 0.04 0.03 0.01 0.04 0.19 0.45 0.41 0.29 0.17 0.16 0.08 0.06 0.05
0.01 0.01 0.01 0.01 0.00 0.01 0.02 0.02 0.03 0.03 0.03 0.03 0.04 0.04 0.04 0.06 0.05 0.05 0.06 0.05 0.04 0.03 0.04 0.07 0.11 0.08 0.06 0.01 0.02 0.05 0.12 0.18 0.13 0.11 0.07 0.03 0.02 0.01
0.02 0.02 0.01 0.01 0.01 0.01 0.02 0.03 0.03 0.03 0.03 0.02 0.03 0.04 0.04 0.06 0.07 0.07 0.03 0.01 0.02 0.03 0.03 0.06 0.09 0.04 0.05 0.03 0.02 0.04 0.04 0.06 0.05 0.02 0.01 0.00 0.00 0.00

GFSNE_prec_precacc12_252.txt.gz
Total_Precipitation_Accumulation
0.00 0.00 0.00 0.00 0.00 0.00 0.00 0.00 0.00 0.01 0.00 0.00 0.00 0.00 0.00 0.00 0.00 0.00 0.00 0.00 0.00 0.00 0.00 0.00 0.00 0.04 0.09 0.09 0.12 0.21 0.50 0.61 0.70 0.70 0.56 0.52 0.57 0.61
0.00 0.00 0.00 0.00 0.00 0.00 0.00 0.00 0.00 0.03 0.02 0.00 0.00 0.00 0.00 0.00 0.00 0.00 0.00 0.00 0.00 0.00 0.00 0.00 0.00 0.00 0.05 0.08 0.09 0.17 0.43 0.55 0.57 0.59 0.66 0.67 0.59 0.70
0.00 0.00 0.00 0.00 0.00 0.00 0.00 0.00 0.00 0.01 0.01 0.00 0.00 0.00 0.00 0.01 0.00 0.00 0.00 0.00 0.00 0.00 0.00 0.01 0.01 0.00 0.00 0.01 0.03 0.08 0.24 0.62 0.86 0.82 0.69 0.63 0.80 0.73
0.00 0.00 0.00 0.00 0.00 0.00 0.00 0.00 0.00 0.00 0.01 0.00 0.00 0.00 0.00 0.01 0.01 0.01 0.01 0.00 0.00 0.00 0.01 0.01 0.01 0.01 0.03 0.03 0.03 0.05 0.13 0.23 0.60 0.85 0.90 0.81 0.66 0.93
0.00 0.00 0.00 0.00 0.00 0.00 0.00 0.00 0.00 0.00 0.00 0.01 0.00 0.00 0.00 0.01 0.01 0.01 0.01 0.01 0.01 0.02 0.02 0.01 0.02 0.04 0.04 0.03 0.03 0.03 0.06 0.09 0.20 0.57 0.90 0.91 1.02 0.86
0.00 0.00 0.00 0.00 0.00 0.00 0.00 0.00 0.00 0.00 0.00 0.01 0.01 0.01 0.01 0.01 0.02 0.02 0.02 0.02 0.02 0.02 0.01 0.00 0.01 0.02 0.01 0.01 0.01 0.01 0.03 0.08 0.13 0.37 0.62 0.82 0.87 1.16
0.00 0.00 0.00 0.00 0.00 0.00 0.00 0.00 0.00 0.01 0.01 0.01 0.01 0.01 0.01 0.01 0.02 0.02 0.03 0.01 0.01 0.01 0.01 0.01 0.01 0.00 0.00 0.01 0.01 0.01 0.01 0.07 0.13 0.32 0.62 0.71 0.83 1.00
0.00 0.00 0.00 0.00 0.00 0.00 0.00 0.00 0.00 0.00 0.01 0.01 0.01 0.01 0.01 0.01 0.02 0.02 0.03 0.04 0.05 0.02 0.03 0.01 0.01 0.00 0.01 0.00 0.00 0.01 0.00 0.01 0.05 0.19 0.52 0.70 0.78 0.88
0.00 0.00 0.00 0.00 0.00 0.00 0.00 0.00 0.00 0.00 0.00 0.01 0.02 0.01 0.02 0.01 0.03 0.05 0.05 0.09 0.07 0.02 0.06 0.04 0.00 0.01 0.00 0.00 0.01 0.00 0.00 0.01 0.03 0.07 0.35 0.79 0.72 0.89
0.00 0.00 0.00 0.00 0.00 0.00 0.00 0.00 0.00 0.00 0.00 0.00 0.01 0.00 0.01 0.01 0.04 0.11 0.12 0.08 0.04 0.01 0.03 0.06 0.00 0.00 0.00 0.00 0.00 0.00 0.00 0.01 0.02 0.07 0.16 0.73 0.86 0.90
0.00 0.00 0.00 0.00 0.00 0.00 0.00 0.00 0.00 0.00 0.00 0.01 0.01 0.01 0.02 0.03 0.04 0.10 0.07 0.11 0.06 0.01 0.01 0.05 0.01 0.00 0.00 0.00 0.00 0.01 0.01 0.02 0.03 0.08 0.20 0.56 1.08 1.00
0.00 0.00 0.00 0.00 0.00 0.00 0.00 0.01 0.01 0.00 0.00 0.00 0.00 0.01 0.01 0.02 0.02 0.04 0.07 0.15 0.08 0.07 0.01 0.09 0.02 0.03 0.06 0.00 0.00 0.01 0.02 0.04 0.06 0.10 0.16 0.40 1.12 1.15
0.00 0.00 0.00 0.00 0.00 0.00 0.00 0.00 0.01 0.00 0.00 0.00 0.00 0.00 0.00 0.00 0.00 0.00 0.02 0.10 0.13 0.08 0.02 0.19 0.08 0.03 0.06 0.02 0.01 0.04 0.04 0.09 0.11 0.19 0.28 0.59 1.10 1.20
0.00 0.00 0.00 0.00 0.00 0.00 0.00 0.00 0.00 0.00 0.00 0.00 0.00 0.00 0.00 0.00 0.00 0.00 0.01 0.02 0.06 0.10 0.04 0.14 0.14 0.09 0.10 0.04 0.03 0.09 0.16 0.27 0.21 0.33 0.52 1.13 1.43 1.13
0.00 0.00 0.00 0.00 0.00 0.00 0.00 0.00 0.00 0.00 0.00 0.01 0.00 0.00 0.00 0.00 0.00 0.01 0.01 0.01 0.01 0.03 0.04 0.06 0.08 0.06 0.06 0.02 0.05 0.14 0.16 0.39 0.48 0.55 0.55 0.82 1.42 1.76
0.00 0.00 0.00 0.00 0.00 0.00 0.00 0.00 0.00 0.00 0.00 0.01 0.01 0.00 0.01 0.01 0.02 0.02 0.03 0.03 0.03 0.04 0.05 0.08 0.08 0.05 0.03 0.05 0.04 0.14 0.16 0.32 0.66 0.82 0.68 0.89 1.24 1.49
0.00 0.00 0.00 0.00 0.00 0.00 0.00 0.00 0.00 0.00 0.00 0.00 0.00 0.00 0.01 0.01 0.02 0.02 0.03 0.05 0.05 0.07 0.10 0.13 0.07 0.05 0.08 0.06 0.09 0.14 0.17 0.28 0.50 0.86 0.63 0.81 1.15 1.27
0.00 0.00 0.00 0.00 0.01 0.00 0.00 0.00 0.00 0.01 0.01 0.00 0.00 0.01 0.02 0.02 0.02 0.02 0.04 0.05 0.05 0.06 0.10 0.13 0.05 0.04 0.04 0.12 0.14 0.15 0.19 0.24 0.37 0.47 0.44 0.38 0.79 1.08
0.00 0.00 0.00 0.00 0.00 0.00 0.00 0.01 0.01 0.01 0.01 0.01 0.01 0.01 0.02 0.02 0.02 0.03 0.04 0.04 0.05 0.05 0.08 0.09 0.05 0.02 0.03 0.09 0.30 0.24 0.16 0.22 0.17 0.29 0.39 0.28 0.43 0.87
0.00 0.00 0.00 0.00 0.00 0.00 0.01 0.01 0.01 0.01 0.01 0.01 0.01 0.02 0.02 0.03 0.03 0.04 0.05 0.05 0.05 0.06 0.08 0.12 0.10 0.05 0.01 0.01 0.14 0.50 0.35 0.27 0.17 0.27 0.35 0.33 0.35 0.48
0.00 0.00 0.00 0.00 0.00 0.00 0.01 0.01 0.01 0.01 0.01 0.02 0.02 0.02 0.02 0.04 0.04 0.04 0.04 0.04 0.04 0.03 0.04 0.08 0.09 0.02 0.01 0.00 0.02 0.16 0.45 0.44 0.32 0.21 0.21 0.11 0.14 0.16
0.00 0.00 0.00 0.00 0.00 0.00 0.01 0.01 0.01 0.02 0.02 0.02 0.02 0.02 0.02 0.04 0.05 0.05 0.05 0.05 0.03 0.03 0.04 0.07 0.09 0.05 0.03 0.00 0.01 0.04 0.14 0.26 0.25 0.22 0.18 0.09 0.06 0.08
0.01 0.01 0.01 0.01 0.00 0.00 0.01 0.01 0.01 0.01 0.02 0.02 0.02 0.03 0.02 0.04 0.06 0.07 0.04 0.02 0.02 0.04 0.04 0.06 0.09 0.04 0.04 0.03 0.01 0.03 0.05 0.10 0.10 0.06 0.08 0.08 0.06 0.04

GFSNE_prec_precacc12_255.txt.gz
Total_Precipitation_Accumulation
0.00 0.00 0.00 0.00 0.00 0.00 0.00 0.00 0.00 0.00 0.00 0.00 0.00 0.00 0.00 0.00 0.00 0.00 0.00 0.00 0.00 0.00 0.00 0.00 0.00 0.00 0.00 0.00 0.00 0.01 0.01 0.02 0.10 0.38 0.45 0.43 0.48 0.53
0.00 0.00 0.00 0.00 0.00 0.00 0.00 0.00 0.00 0.00 0.00 0.00 0.00 0.00 0.00 0.00 0.00 0.00 0.00 0.00 0.00 0.00 0.00 0.00 0.00 0.00 0.00 0.00 0.00 0.01 0.01 0.01 0.04 0.17 0.55 0.61 0.49 0.62
0.00 0.00 0.00 0.00 0.00 0.00 0.00 0.00 0.00 0.00 0.00 0.00 0.00 0.00 0.00 0.00 0.00 0.00 0.00 0.00 0.00 0.00 0.00 0.01 0.01 0.00 0.00 0.00 0.01 0.01 0.03 0.04 0.03 0.07 0.31 0.49 0.71 0.66
0.00 0.00 0.01 0.00 0.00 0.00 0.00 0.00 0.00 0.00 0.00 0.00 0.00 0.00 0.00 0.00 0.00 0.00 0.00 0.00 0.00 0.00 0.01 0.01 0.01 0.02 0.03 0.03 0.03 0.04 0.05 0.05 0.04 0.03 0.12 0.42 0.45 0.83
0.01 0.02 0.01 0.01 0.00 0.00 0.00 0.00 0.00 0.00 0.00 0.00 0.00 0.00 0.00 0.00 0.00 0.00 0.00 0.00 0.00 0.01 0.02 0.01 0.02 0.04 0.04 0.03 0.03 0.02 0.02 0.01 0.01 0.03 0.03 0.23 0.57 0.55
0.02 0.04 0.02 0.00 0.00 0.00 0.00 0.00 0.00 0.00 0.00 0.00 0.00 0.00 0.00 0.00 0.00 0.00 0.00 0.00 0.00 0.01 0.01 0.00 0.01 0.02 0.02 0.01 0.01 0.01 0.01 0.01 0.01 0.05 0.07 0.13 0.33 0.59
0.08 0.04 0.02 0.00 0.00 0.00 0.00 0.00 0.00 0.00 0.00 0.00 0.00 0.00 0.00 0.00 0.01 0.01 0.01 0.00 0.00 0.00 0.00 0.01 0.01 0.00 0.00 0.01 0.01 0.01 0.01 0.01 0.00 0.02 0.09 0.17 0.35 0.54
0.07 0.03 0.01 0.00 0.00 0.00 0.00 0.00 0.00 0.00 0.00 0.00 0.01 0.01 0.01 0.00 0.01 0.01 0.02 0.04 0.04 0.01 0.02 0.01 0.00 0.00 0.00 0.00 0.00 0.00 0.00 0.00 0.00 0.00 0.03 0.12 0.34 0.55
0.04 0.01 0.00 0.00 0.00 0.00 0.00 0.00 0.00 0.00 0.00 0.01 0.02 0.01 0.02 0.00 0.03 0.04 0.04 0.07 0.06 0.01 0.06 0.04 0.00 0.01 0.00 0.00 0.01 0.00 0.00 0.00 0.00 0.00 0.04 0.15 0.33 0.58
0.03 0.01 0.00 0.00 0.00 0.00 0.00 0.00 0.00 0.00 0.00 0.00 0.00 0.00 0.01 0.00 0.01 0.05 0.06 0.05 0.03 0.01 0.03 0.07 0.00 0.00 0.00 0.00 0.00 0.00 0.00 0.00 0.01 0.02 0.05 0.24 0.42 0.61
0.03 0.01 0.00 0.00 0.00 0.00 0.00 0.00 0.00 0.00 0.00 0.00 0.00 0.00 0.01 0.01 0.01 0.03 0.04 0.08 0.05 0.01 0.01 0.07 0.01 0.00 0.00 0.00 0.00 0.00 0.01 0.02 0.02 0.03 0.05 0.24 0.68 0.66
0.02 0.01 0.00 0.00 0.00 0.00 0.00 0.00 0.00 0.00 0.00 0.00 0.00 0.00 0.00 0.01 0.01 0.01 0.05 0.13 0.08 0.07 0.01 0.14 0.02 0.05 0.07 0.00 0.00 0.00 0.01 0.03 0.04 0.04 0.04 0.20 0.86 0.85
0.02 0.01 0.00 0.00 0.00 0.00 0.00 0.00 0.00 0.00 0.00 0.00 0.00 0.00 0.00 0.00 0.00 0.00 0.02 0.09 0.12 0.08 0.02 0.22 0.09 0.05 0.08 0.02 0.00 0.00 0.02 0.05 0.06 0.09 0.16 0.38 0.86 0.96
0.01 0.00 0.00 0.00 0.00 0.00 0.00 0.00 0.00 0.00 0.00 0.00 0.00 0.00 0.00 0.00 0.00 0.00 0.01 0.01 0.04 0.08 0.03 0.12 0.15 0.12 0.13 0.04 0.01 0.02 0.05 0.12 0.14 0.18 0.29 0.77 1.06 0.81
0.01 0.00 0.00 0.00 0.00 0.00 0.00 0.00 0.00 0.00 0.00 0.00 0.00 0.00 0.00 0.00 0.00 0.00 0.00 0.00 0.00 0.01 0.02 0.02 0.07 0.06 0.05 0.03 0.03 0.06 0.09 0.22 0.37 0.51 0.49 0.66 1.12 1.34
0.00 0.00 0.00 0.00 0.00 0.00 0.00 0.00 0.00 0.00 0.00 0.01 0.00 0.00 0.00 0.00 0.00 0.00 0.01 0.00 0.01 0.01 0.02 0.04 0.05 0.02 0.01 0.02 0.02 0.05 0.08 0.24 0.52 0.71 0.66 0.75 1.08 1.44
0.00 0.00 0.00 0.00 0.00 0.00 0.00 0.00 0.00 0.00 0.00 0.00 0.00 0.00 0.00 0.00 0.00 0.00 0.01 0.01 0.01 0.02 0.04 0.06 0.03 0.01 0.02 0.03 0.04 0.07 0.12 0.21 0.42 0.81 0.68 0.78 1.19 1.46
0.00 0.00 0.00 0.00 0.00 0.00 0.00 0.00 0.00 0.00 0.00 0.00 0.01 0.01 0.01 0.01 0.00 0.00 0.01 0.01 0.01 0.01 0.05 0.07 0.02 0.00 0.00 0.05 0.09 0.10 0.11 0.20 0.32 0.48 0.62 0.56 1.07 1.46
0.00 0.00 0.00 0.00 0.00 0.00 0.00 0.00 0.00 0.00 0.00 0.01 0.00 0.01 0.01 0.01 0.01 0.01 0.01 0.01 0.01 0.01 0.03 0.04 0.02 0.00 0.00 0.04 0.16 0.17 0.12 0.20 0.16 0.24 0.46 0.44 0.73 1.47
0.00 0.00 0.00 0.00 0.00 0.00 0.00 0.00 0.00 0.00 0.00 0.00 0.01 0.01 0.01 0.01 0.01 0.01 0.02 0.02 0.01 0.01 0.02 0.06 0.04 0.01 0.00 0.01 0.10 0.37 0.28 0.24 0.16 0.27 0.46 0.55 0.79 1.14
0.00 0.00 0.00 0.00 0.00 0.00 0.00 0.00 0.00 0.01 0.01 0.01 0.01 0.01 0.01 0.02 0.02 0.01 0.02 0.02 0.02 0.01 0.02 0.05 0.04 0.00 0.00 0.00 0.01 0.11 0.37 0.42 0.32 0.22 0.28 0.21 0.34 0.41
0.00 0.00 0.00 0.00 0.00 0.00 0.00 0.00 0.00 0.01 0.00 0.01 0.01 0.01 0.01 0.02 0.02 0.02 0.03 0.03 0.02 0.02 0.03 0.05 0.06 0.02 0.00 0.00 0.01 0.03 0.14 0.28 0.31 0.29 0.30 0.15 0.09 0.14
0.00 0.00 0.00 0.00 0.00 0.00 0.00 0.00 0.00 0.00 0.01 0.01 0.01 0.01 0.01 0.02 0.03 0.05 0.03 0.02 0.02 0.04 0.03 0.04 0.06 0.02 0.02 0.02 0.01 0.02 0.04 0.10 0.14 0.11 0.28 0.28 0.18 0.13

GFSNE_prec_precacc12_258.txt.gz
Total_Precipitation_Accumulation
0.00 0.00 0.00 0.00 0.00 0.00 0.00 0.00 0.00 0.00 0.00 0.00 0.00 0.00 0.00 0.00 0.00 0.00 0.00 0.00 0.00 0.00 0.00 0.00 0.00 0.00 0.00 0.01 0.01 0.02 0.02 0.03 0.03 0.05 0.05 0.05 0.09 0.27
0.00 0.00 0.00 0.00 0.00 0.00 0.00 0.00 0.00 0.00 0.00 0.00 0.00 0.00 0.00 0.00 0.00 0.00 0.00 0.00 0.00 0.00 0.00 0.00 0.00 0.00 0.00 0.00 0.01 0.01 0.02 0.02 0.02 0.03 0.04 0.05 0.08 0.23
0.00 0.00 0.00 0.00 0.00 0.00 0.00 0.00 0.00 0.00 0.00 0.00 0.00 0.00 0.00 0.00 0.00 0.00 0.00 0.00 0.00 0.00 0.00 0.00 0.00 0.00 0.00 0.00 0.01 0.02 0.02 0.03 0.04 0.04 0.03 0.03 0.07 0.22
0.00 0.00 0.01 0.01 0.02 0.03 0.02 0.01 0.00 0.00 0.00 0.00 0.00 0.00 0.00 0.00 0.00 0.00 0.00 0.00 0.00 0.00 0.00 0.00 0.00 0.02 0.03 0.03 0.03 0.04 0.05 0.05 0.04 0.02 0.01 0.00 0.02 0.38
0.01 0.02 0.03 0.05 0.05 0.04 0.03 0.01 0.00 0.00 0.00 0.00 0.00 0.00 0.00 0.00 0.00 0.00 0.00 0.00 0.00 0.00 0.00 0.00 0.01 0.03 0.04 0.03 0.03 0.02 0.02 0.02 0.01 0.01 0.01 0.01 0.02 0.13
0.04 0.06 0.10 0.11 0.10 0.08 0.03 0.01 0.00 0.00 0.00 0.00 0.00 0.00 0.00 0.00 0.00 0.00 0.00 0.00 0.00 0.00 0.00 0.00 0.01 0.02 0.02 0.01 0.01 0.01 0.01 0.02 0.01 0.01 0.01 0.01 0.03 0.05
0.15 0.18 0.17 0.15 0.12 0.04 0.01 0.01 0.00 0.00 0.00 0.00 0.00 0.00 0.00 0.00 0.00 0.00 0.00 0.00 0.00 0.00 0.00 0.00 0.00 0.00 0.00 0.01 0.01 0.01 0.01 0.01 0.00 0.00 0.00 0.01 0.03 0.12
0.22 0.20 0.17 0.12 0.05 0.02 0.01 0.00 0.00 0.00 0.00 0.00 0.00 0.00 0.00 0.00 0.00 0.01 0.02 0.02 0.02 0.00 0.01 0.01 0.00 0.00 0.00 0.00 0.00 0.00 0.00 0.01 0.01 0.00 0.01 0.01 0.04 0.13
0.15 0.12 0.08 0.04 0.03 0.02 0.01 0.00 0.00 0.00 0.00 0.00 0.01 0.00 0.01 0.00 0.02 0.03 0.02 0.03 0.03 0.00 0.03 0.03 0.00 0.01 0.00 0.00 0.00 0.00 0.00 0.01 0.00 0.00 0.01 0.02 0.05 0.12
0.11 0.08 0.06 0.05 0.03 0.02 0.01 0.00 0.00 0.00 0.00 0.00 0.00 0.00 0.00 0.00 0.01 0.03 0.03 0.02 0.01 0.01 0.01 0.05 0.00 0.00 0.00 0.00 0.00 0.00 0.00 0.00 0.00 0.01 0.02 0.03 0.05 0.13
0.08 0.04 0.03 0.02 0.01 0.01 0.00 0.00 0.00 0.00 0.00 0.00 0.00 0.00 0.01 0.00 0.00 0.01 0.02 0.05 0.04 0.01 0.01 0.08 0.01 0.00 0.00 0.00 0.00 0.00 0.00 0.02 0.02 0.02 0.02 0.02 0.07 0.24
0.04 0.02 0.02 0.01 0.01 0.00 0.00 0.00 0.00 0.00 0.00 0.00 0.00 0.00 0.00 0.00 0.00 0.01 0.03 0.09 0.06 0.06 0.01 0.14 0.02 0.05 0.08 0.00 0.00 0.00 0.01 0.02 0.03 0.03 0.01 0.02 0.20 0.34
0.03 0.03 0.01 0.00 0.00 0.00 0.00 0.00 0.00 0.00 0.00 0.00 0.00 0.00 0.00 0.00 0.00 0.00 0.01 0.07 0.10 0.07 0.01 0.21 0.08 0.05 0.08 0.02 0.00 0.00 0.00 0.04 0.05 0.05 0.09 0.20 0.51 0.56
0.02 0.02 0.01 0.00 0.00 0.00 0.00 0.00 0.00 0.00 0.00 0.00 0.00 0.00 0.00 0.00 0.00 0.00 0.00 0.00 0.03 0.07 0.03 0.10 0.13 0.11 0.11 0.04 0.01 0.00 0.01 0.06 0.11 0.13 0.21 0.51 0.70 0.62
0.02 0.01 0.00 0.00 0.00 0.00 0.00 0.00 0.00 0.00 0.00 0.00 0.00 0.00 0.00 0.00 0.00 0.00 0.00 0.00 0.00 0.00 0.01 0.02 0.06 0.05 0.04 0.04 0.03 0.02 0.03 0.08 0.27 0.45 0.54 0.64 0.95 1.01
0.01 0.00 0.00 0.00 0.00 0.00 0.00 0.00 0.00 0.00 0.00 0.00 0.00 0.00 0.00 0.00 0.00 0.00 0.00 0.00 0.00 0.00 0.00 0.02 0.03 0.01 0.00 0.01 0.02 0.03 0.05 0.15 0.37 0.59 0.73 0.74 0.97 1.22
0.00 0.00 0.00 0.00 0.00 0.00 0.00 0.00 0.00 0.00 0.00 0.00 0.00 0.00 0.00 0.00 0.00 0.00 0.00 0.00 0.00 0.01 0.02 0.02 0.01 0.01 0.01 0.01 0.03 0.05 0.08 0.12 0.30 0.69 0.66 0.71 1.09 1.29
0.00 0.00 0.00 0.00 0.00 0.00 0.00 0.00 0.00 0.00 0.00 0.00 0.00 0.01 0.01 0.00 0.00 0.00 0.00 0.01 0.01 0.01 0.03 0.03 0.01 0.00 0.00 0.01 0.07 0.08 0.06 0.14 0.25 0.42 0.65 0.61 1.13 1.58
0.00 0.00 0.00 0.00 0.00 0.00 0.00 0.00 0.00 0.00 0.00 0.00 0.00 0.00 0.01 0.01 0.01 0.01 0.01 0.00 0.00 0.00 0.02 0.02 0.00 0.00 0.00 0.02 0.05 0.12 0.10 0.17 0.15 0.23 0.51 0.52 0.89 1.90
0.01 0.00 0.00 0.00 0.00 0.00 0.00 0.00 0.00 0.00 0.00 0.00 0.00 0.00 0.00 0.01 0.01 0.01 0.01 0.01 0.00 0.00 0.00 0.02 0.00 0.00 0.00 0.01 0.06 0.24 0.22 0.20 0.12 0.25 0.54 0.74 1.21 1.83
0.00 0.00 0.00 0.00 0.00 0.00 0.00 0.00 0.00 0.00 0.00 0.00 0.00 0.00 0.00 0.01 0.01 0.01 0.01 0.01 0.00 0.00 0.01 0.02 0.00 0.00 0.00 0.00 0.01 0.07 0.26 0.36 0.26 0.21 0.33 0.34 0.62 0.64
0.00 0.00 0.00 0.00 0.00 0.00 0.00 0.00 0.00 0.00 0.00 0.00 0.00 0.00 0.00 0.01 0.02 0.01 0.01 0.01 0.01 0.01 0.01 0.02 0.02 0.00 0.00 0.00 0.01 0.02 0.12 0.26 0.33 0.32 0.37 0.17 0.12 0.20
0.00 0.00 0.00 0.00 0.00 0.00 0.00 0.00 0.00 0.00 0.00 0.00 0.01 0.00 0.00 0.00 0.02 0.02 0.02 0.01 0.01 0.02 0.02 0.02 0.01 0.00 0.01 0.01 0.01 0.02 0.04 0.10 0.18 0.16 0.45 0.43 0.26 0.19

GFSNE_prec_precacc12_264.txt.gz
Total_Precipitation_Accumulation
0.19 0.18 0.19 0.19 0.12 0.02 0.00 0.00 0.00 0.00 0.00 0.00 0.00 0.00 0.00 0.00 0.00 0.00 0.00 0.00 0.00 0.00 0.00 0.00 0.00 0.00 0.00 0.01 0.01 0.01 0.02 0.03 0.05 0.06 0.07 0.07 0.06 0.06
0.11 0.19 0.22 0.18 0.11 0.02 0.00 0.00 0.00 0.00 0.00 0.00 0.00 0.01 0.00 0.00 0.00 0.00 0.00 0.00 0.00 0.00 0.00 0.00 0.00 0.00 0.00 0.00 0.00 0.01 0.02 0.03 0.03 0.05 0.06 0.06 0.06 0.05
0.00 0.00 0.00 0.00 0.00 0.00 0.00 0.00 0.00 0.00 0.02 0.03 0.04 0.02 0.00 0.00 0.00 0.00 0.00 0.00 0.00 0.00 0.00 0.00 0.00 0.00 0.00 0.00 0.00 0.01 0.01 0.03 0.04 0.05 0.04 0.04 0.04 0.04
0.06 0.05 0.05 0.04 0.05 0.05 0.04 0.06 0.08 0.08 0.08 0.07 0.03 0.00 0.00 0.00 0.00 0.00 0.00 0.00 0.00 0.00 0.00 0.00 0.00 0.00 0.00 0.00 0.00 0.00 0.01 0.01 0.03 0.02 0.02 0.02 0.02 0.02
0.14 0.11 0.10 0.12 0.14 0.14 0.14 0.11 0.07 0.05 0.02 0.01 0.00 0.00 0.00 0.00 0.00 0.00 0.00 0.00 0.00 0.00 0.00 0.00 0.00 0.00 0.00 0.00 0.00 0.00 0.01 0.01 0.01 0.01 0.01 0.01 0.01 0.01
0.10 0.10 0.13 0.14 0.13 0.13 0.10 0.05 0.03 0.02 0.01 0.00 0.00 0.00 0.00 0.00 0.00 0.00 0.00 0.00 0.00 0.00 0.00 0.00 0.00 0.00 0.00 0.00 0.00 0.00 0.01 0.02 0.01 0.01 0.01 0.01 0.01 0.00
0.17 0.19 0.19 0.17 0.14 0.09 0.05 0.03 0.01 0.01 0.00 0.00 0.00 0.00 0.00 0.00 0.00 0.00 0.00 0.00 0.00 0.00 0.00 0.00 0.00 0.00 0.00 0.00 0.00 0.00 0.00 0.00 0.01 0.01 0.01 0.00 0.01 0.01
0.25 0.22 0.20 0.16 0.10 0.06 0.02 0.01 0.01 0.00 0.00 0.00 0.00 0.00 0.00 0.00 0.00 0.01 0.01 0.01 0.01 0.00 0.00 0.00 0.00 0.00 0.00 0.00 0.00 0.00 0.00 0.01 0.01 0.00 0.00 0.01 0.01 0.01
0.18 0.16 0.14 0.12 0.11 0.05 0.04 0.01 0.00 0.00 0.00 0.00 0.00 0.00 0.00 0.00 0.01 0.01 0.01 0.01 0.01 0.00 0.01 0.01 0.00 0.00 0.00 0.00 0.00 0.00 0.00 0.01 0.00 0.00 0.01 0.02 0.02 0.02
0.14 0.12 0.10 0.09 0.06 0.04 0.01 0.00 0.00 0.00 0.00 0.00 0.00 0.00 0.00 0.00 0.00 0.01 0.01 0.01 0.00 0.00 0.00 0.01 0.00 0.00 0.00 0.00 0.00 0.00 0.00 0.00 0.00 0.00 0.02 0.03 0.03 0.02
0.12 0.10 0.07 0.05 0.05 0.02 0.00 0.00 0.00 0.00 0.00 0.00 0.00 0.00 0.00 0.00 0.00 0.00 0.01 0.01 0.01 0.00 0.01 0.05 0.01 0.01 0.00 0.00 0.00 0.00 0.00 0.00 0.00 0.01 0.02 0.03 0.02 0.01
0.18 0.20 0.20 0.11 0.04 0.01 0.00 0.00 0.00 0.00 0.00 0.00 0.00 0.00 0.00 0.00 0.00 0.00 0.01 0.02 0.02 0.02 0.01 0.08 0.01 0.04 0.05 0.00 0.00 0.00 0.00 0.00 0.01 0.02 0.04 0.03 0.03 0.01
0.28 0.21 0.15 0.08 0.02 0.00 0.00 0.00 0.00 0.00 0.00 0.00 0.00 0.00 0.00 0.00 0.00 0.00 0.00 0.01 0.03 0.03 0.01 0.09 0.04 0.04 0.05 0.01 0.00 0.00 0.01 0.02 0.02 0.03 0.07 0.05 0.04 0.01
0.19 0.21 0.17 0.06 0.01 0.00 0.00 0.00 0.00 0.00 0.00 0.00 0.00 0.00 0.00 0.00 0.00 0.00 0.00 0.00 0.01 0.02 0.01 0.03 0.06 0.07 0.08 0.03 0.01 0.00 0.01 0.02 0.04 0.09 0.17 0.13 0.10 0.07
0.32 0.18 0.09 0.04 0.00 0.00 0.00 0.00 0.00 0.00 0.00 0.00 0.00 0.00 0.00 0.00 0.00 0.00 0.00 0.00 0.00 0.00 0.00 0.00 0.03 0.02 0.03 0.04 0.04 0.02 0.04 0.04 0.13 0.22 0.35 0.35 0.38 0.29
0.19 0.15 0.09 0.03 0.01 0.00 0.00 0.00 0.00 0.00 0.00 0.00 0.00 0.00 0.00 0.00 0.00 0.00 0.00 0.00 0.00 0.00 0.00 0.00 0.01 0.01 0.01 0.01 0.02 0.03 0.05 0.18 0.17 0.25 0.63 0.46 0.56 0.62
0.10 0.07 0.04 0.02 0.01 0.00 0.00 0.00 0.00 0.00 0.00 0.00 0.00 0.00 0.00 0.00 0.00 0.00 0.00 0.00 0.00 0.00 0.00 0.00 0.00 0.01 0.00 0.01 0.04 0.04 0.07 0.10 0.21 0.44 0.55 0.44 0.76 0.91
0.09 0.06 0.04 0.02 0.01 0.00 0.00 0.00 0.00 0.00 0.00 0.00 0.00 0.00 0.01 0.00 0.00 0.00 0.00 0.00 0.00 0.00 0.00 0.00 0.00 0.00 0.00 0.00 0.05 0.07 0.05 0.12 0.28 0.45 0.53 0.41 0.89 1.12
0.10 0.05 0.02 0.01 0.00 0.00 0.00 0.00 0.00 0.00 0.00 0.00 0.00 0.00 0.01 0.01 0.01 0.00 0.00 0.00 0.00 0.00 0.00 0.00 0.00 0.00 0.00 0.01 0.01 0.07 0.13 0.14 0.22 0.32 0.44 0.39 0.82 1.74
0.05 0.02 0.01 0.00 0.00 0.00 0.00 0.00 0.00 0.00 0.00 0.00 0.00 0.00 0.00 0.00 0.00 0.00 0.00 0.00 0.00 0.00 0.00 0.00 0.00 0.00 0.01 0.02 0.06 0.13 0.13 0.11 0.10 0.28 0.60 0.75 1.52 2.20
0.01 0.01 0.00 0.00 0.00 0.00 0.00 0.00 0.00 0.00 0.00 0.00 0.00 0.00 0.00 0.01 0.01 0.00 0.01 0.01 0.00 0.00 0.00 0.00 0.00 0.00 0.00 0.00 0.02 0.03 0.11 0.23 0.15 0.20 0.37 0.48 0.93 0.88
0.01 0.00 0.00 0.00 0.00 0.00 0.00 0.00 0.00 0.00 0.00 0.00 0.00 0.00 0.01 0.01 0.01 0.01 0.00 0.01 0.01 0.01 0.01 0.00 0.00 0.00 0.00 0.00 0.02 0.03 0.09 0.19 0.23 0.21 0.25 0.10 0.09 0.15
0.00 0.01 0.00 0.00 0.00 0.00 0.00 0.00 0.00 0.00 0.00 0.00 0.00 0.00 0.00 0.00 0.00 0.01 0.01 0.01 0.01 0.01 0.01 0.00 0.00 0.00 0.00 0.01 0.01 0.02 0.05 0.13 0.28 0.19 0.55 0.46 0.25 0.21